This demonstration page uses our WeatherBlox Daily Observations layout. Learn more.

Left ArrowRight Arrow

Hourly Observations for June 28, 2022

Temp ( °F °C ) Dew Point ( °F °C ) Humidity (%) Winds ( mph kmh ) Pressure ( in mb ) Visibility ( mi km ) Precip ( " mm )
12:15 am 00:15 Clear 59 15 47 8.5 65 65 SSW 10 17 30.21 1023 10 16 0.00 0.00
12:35 am 00:35 Clear 58 14.3 48 8.7 69 69 SSW 10 17 30.21 1023 10 16 0.00 0.00
12:55 am 00:55 Clear 58 14.2 48 8.7 70 70 SW 10 17 30.22 1023 10 16 0.00 0.00
1:15 am 01:15 Clear 57 13.7 48 9 73 73 SW 7 11 30.23 1024 10 16 0.00 0.00
1:35 am 01:35 Clear 57 13.9 48 9 73 73 SW 6 9 30.22 1023 10 16 0.00 0.00
1:55 am 01:55 Clear 56 13.6 48 9.1 74 74 SW 9 15 30.22 1023 10 16 0.00 0.00
2:15 am 02:15 Clear 56 13.5 49 9.3 76 76 SW 9 15 30.22 1023 10 16 0.00 0.00
2:35 am 02:35 Clear 55 13 49 9.5 79 79 SSW 6 9 30.22 1023 10 16 0.00 0.00
2:55 am 02:55 Clear 55 12.5 49 9.5 82 82 SSW 5 7 30.22 1023 10 16 0.00 0.00
3:15 am 03:15 Clear 54 12.4 49 9.4 82 82 SSW 7 11 30.22 1023 10 16 0.00 0.00
3:35 am 03:35 Clear 54 12.1 49 9.4 84 84 SSW 6 9 30.22 1024 10 16 0.00 0.00
3:55 am 03:55 Clear 54 12 49 9.2 83 83 SSW 7 11 30.22 1023 10 16 0.00 0.00
4:15 am 04:15 Clear 54 12 48 9 82 82 SSW 8 13 30.22 1023 10 16 0.00 0.00
4:35 am 04:35 Clear 54 12 48 9 82 82 SSW 8 13 30.22 1023 10 16 0.00 0.00
4:55 am 04:55 Clear 54 12.2 48 8.8 80 80 SSW 9 15 30.20 1023 10 16 0.00 0.00
5:15 am 05:15 Clear 54 12.1 48 9 82 82 SSW 9 15 30.19 1022 10 16 0.00 0.00
5:35 am 05:35 Clear 54 12 48 9 82 82 SSW 10 17 30.20 1023 10 16 0.00 0.00
5:55 am 05:55 Clear 54 12 48 8.9 82 82 SW 10 17 30.20 1023 10 16 0.00 0.00
6:15 am 06:15 Sunny 54 12.2 48 8.8 80 80 SW 12 19 30.19 1022 10 16 0.00 0.00
6:35 am 06:35 Sunny 54 12.1 48 8.7 80 80 SSW 12 19 30.20 1023 10 16 0.00 0.00
6:55 am 06:55 Sunny 54 12.2 47 8.6 79 79 SW 9 15 30.20 1023 10 16 0.00 0.00
7:15 am 07:15 Sunny 56 13.1 47 8.6 74 74 SW 8 13 30.21 1023 10 16 0.00 0.00
7:35 am 07:35 Sunny 57 14 47 8.6 70 70 SW 9 15 30.19 1022 10 16 0.00 0.00
7:55 am 07:55 Sunny 59 15.1 48 8.9 67 67 SW 13 20 30.18 1022 10 16 0.00 0.00
8:15 am 08:15 Sunny 62 16.7 49 9.2 61 61 SW 15 24 30.16 1021 10 16 0.00 0.00
8:35 am 08:35 Sunny 64 18 47 8.6 54 54 SW 16 26 30.15 1021 10 16 0.00 0.00
8:55 am 08:55 Sunny 65 18.4 48 8.7 53 53 SW 16 26 30.15 1021 10 16 0.00 0.00
9:15 am 09:15 Sunny 66 19 48 8.8 52 52 SW 13 20 30.14 1021 10 16 0.00 0.00
9:35 am 09:35 Sunny 68 19.8 49 9.2 51 51 SW 13 20 30.14 1021 10 16 0.00 0.00
9:55 am 09:55 Sunny 69 20.8 48 9.1 47 47 SSW 16 26 30.12 1020 10 16 0.00 0.00
10:15 am 10:15 Sunny 71 21.8 49 9.4 45 45 SW 17 28 30.10 1019 10 16 0.00 0.00
10:35 am 10:35 Sunny 73 22.6 50 10.2 46 46 SW 17 28 30.10 1019 10 16 0.00 0.00
10:55 am 10:55 Sunny 74 23.5 51 10.5 44 44 SSW 17 28 30.08 1019 10 16 0.00 0.00
11:15 am 11:15 Sunny 76 24.6 52 10.9 42 42 SW 16 26 30.07 1018 10 16 0.00 0.00
11:35 am 11:35 Sunny 77 25 51 10.5 40 40 SW 13 20 30.08 1018 10 16 0.00 0.00
11:55 am 11:55 Sunny 79 25.9 52 11 39 39 SW 14 22 30.07 1018 10 16 0.00 0.00
12:15 pm 12:15 Sunny 80 26.7 52 11.2 38 38 SSW 13 20 30.05 1018 10 16 0.00 0.00
12:35 pm 12:35 Sunny 81 27.1 53 11.5 38 38 SW 13 20 30.04 1017 10 16 0.00 0.00
12:55 pm 12:55 Sunny 82 27.8 53 11.7 37 37 SW 13 20 30.03 1017 10 16 0.00 0.00
1:15 pm 13:15 Sunny 83 28.2 53 11.8 36 36 SSW 13 20 30.02 1017 10 16 0.00 0.00
1:35 pm 13:35 Sunny 85 29.2 55 12.6 36 36 SSW 10 17 30.01 1016 10 16 0.00 0.00
1:55 pm 13:55 Sunny 85 29.3 54 12.3 35 35 S 9 15 30.00 1016 10 16 0.00 0.00
2:15 pm 14:15 Sunny 85 29.7 54 12.1 34 34 SSW 8 13 30.00 1016 10 16 0.00 0.00
2:35 pm 14:35 Sunny 87 30.3 54 12 32 32 SSW 8 13 29.98 1015 10 16 0.00 0.00
2:55 pm 14:55 Sunny 88 30.9 54 12 31 31 SSW 10 17 29.97 1015 10 16 0.00 0.00
3:15 pm 15:15 Sunny 88 31.2 54 12.1 31 31 SSW 12 19 29.96 1014 10 16 0.00 0.00
3:35 pm 15:35 Sunny 89 31.4 53 11.7 30 30 SSW 8 13 29.96 1014 10 16 0.00 0.00
3:55 pm 15:55 Sunny 90 32.3 53 11.6 28 28 SSW 13 20 29.94 1014 10 16 0.00 0.00
4:15 pm 16:15 Sunny 91 32.5 54 12 29 29 SSW 12 19 29.93 1013 7 11 0.00 0.00
4:35 pm 16:35 Sunny 91 32.8 51 10.8 26 26 S 10 17 29.93 1013 10 16 0.00 0.00
4:55 pm 16:55 Sunny 91 32.7 51 10.3 25 25 SSW 12 19 29.92 1013 7 11 0.00 0.00
5:15 pm 17:15 Sunny 91 32.7 50 10 25 25 SSW 10 17 29.92 1013 10 16 0.00 0.00
5:35 pm 17:35 Sunny 91 32.6 52 11.2 27 27 SSW 10 17 29.91 1013 10 16 0.00 0.00
5:55 pm 17:55 Sunny 91 32.5 55 12.5 29 29 S 12 19 29.91 1013 10 16 0.00 0.00
6:15 pm 18:15 Sunny 90 32.1 54 12.2 30 30 S 12 19 29.91 1013 10 16 0.00 0.00
6:35 pm 18:35 Sunny 89 31.7 54 12.1 30 30 S 10 17 29.90 1013 10 16 0.00 0.00
6:55 pm 18:55 Sunny 89 31.5 54 12.4 31 31 S 10 17 29.91 1013 10 16 0.00 0.00
7:15 pm 19:15 Sunny 88 31 55 12.7 33 33 S 12 19 29.90 1013 10 16 0.00 0.00
7:35 pm 19:35 Sunny 87 30.3 55 13 35 35 S 10 17 29.90 1013 10 16 0.00 0.00
7:55 pm 19:55 Sunny 85 29.5 56 13.2 37 37 S 9 15 29.91 1013 10 16 0.00 0.00
8:15 pm 20:15 Sunny 83 28.2 57 13.7 41 41 SSE 8 13 29.92 1013 10 16 0.00 0.00
8:35 pm 20:35 Sunny 80 26.7 57 13.7 45 45 SSE 9 15 29.93 1014 10 16 0.00 0.00
8:55 pm 20:55 Sunny 78 25.7 56 13.4 47 47 S 8 13 29.94 1014 10 16 0.00 0.00
9:15 pm 21:15 Clear 76 24.5 56 13.2 49 49 SSE 9 15 29.95 1014 10 16 0.00 0.00
9:35 pm 21:35 Clear 75 23.8 55 13 51 51 SSE 9 15 29.97 1015 10 16 0.00 0.00
9:55 pm 21:55 Clear 74 23.1 55 12.7 52 52 Calm 29.98 1015 10 16 0.00 0.00
10:15 pm 22:15 Clear 73 22.7 55 12.6 53 53 SSE 8 13 29.98 1015 10 16 0.00 0.00
10:35 pm 22:35 Clear 72 22.3 55 12.9 55 55 SSE 9 15 30.00 1016 10 16 0.00 0.00
10:55 pm 22:55 Clear 72 22 56 13.2 58 58 SSE 9 15 30.01 1016 10 16 0.00 0.00
11:15 pm 23:15 Clear 72 22 56 13.4 58 58 S 8 13 30.01 1016 10 16 0.00 0.00
11:35 pm 23:35 Clear 70 21.2 56 13.6 62 62 S 9 15 30.02 1016 10 16 0.00 0.00
11:55 pm 23:55 Clear 70 20.9 56 13.5 63 63 S 12 19 30.03 1017 10 16 0.00 0.00

Powered by AerisWeather